Simultaneous Nadir Overpasses (SNOs) Predictions

Prediction of SNOs between METOP-B and NOAA-19 Satellite Orbit:

Table of predicted SNOs for the next 14.0 days since TLE Epoch: 6/5/2020
Index Date (METOP-B) Time (METOP-B) Lat,Lon (METOP-B) SZA (METOP-B ) Date (NOAA-19) Time (NOAA-19) Lat,Lon (NOAA-19) SZA (NOAA-19 ) Distance(km) Time Diff (sec)
1 06/10/2020 16:51:56 -80.02, 129.41 122.29 06/10/2020 16:50:46 -80.03, 129.31 122.31 2.28 70
2 06/10/2020 17:42:36 80.02, -63.27 57.71 06/10/2020 17:41:47 80.02, -63.33 57.69 1.24 49
3 06/10/2020 18:33:18 -80.01, 103.94 122.32 06/10/2020 18:32:46 -80.02, 104.00 122.31 1.64 32
4 06/10/2020 19:23:58 80.00, -88.74 57.68 06/10/2020 19:23:47 80.01, -88.65 57.69 1.94 11
5 06/10/2020 20:14:39 -80.02, 78.77 122.29 06/10/2020 20:14:46 -80.00, 78.69 122.32 2.71 7
6 06/10/2020 21:05:19 80.02,-113.92 57.70 06/10/2020 21:05:47 80.00,-113.96 57.69 3.06 28
7 06/10/2020 21:56:01 -80.01, 53.30 122.32 06/10/2020 21:56:46 -79.99, 53.38 122.32 2.88 45
8 06/10/2020 22:46:42 79.98,-139.68 57.63 06/10/2020 22:47:48 80.00,-139.59 57.68 3.40 66




NCC Satellite Simultaneous Nadir Overpasses (SNOs) Prediction Service
